This is the latest recevied weather packets stored in our database for station/object W0WC. If no packets are shown the sender has not sent any weather packets the latest 10 day(s).
| Time | Temp. | Humidity | Pressure | Rain* | Wind** | Luminosity | Snow |
|---|---|---|---|---|---|---|---|
| 1777938247 | 25° C | 50% | 1004.8 hPa | 0 mm | - | 93 W/m² | - |
| 1777937943 | 25° C | 50% | 1004.8 hPa | 0 mm | - | 98 W/m² | - |
| 1777937639 | 25° C | 50% | 1004.9 hPa | 0 mm | - | 100 W/m² | - |
| 1777937336 | 25° C | 50% | 1004.8 hPa | 0 mm | - | 97 W/m² | - |
| 1777937033 | 25° C | 49% | 1004.8 hPa | 0 mm | - | 104 W/m² | - |
| 1777936730 | 25.56° C | 48% | 1005 hPa | 0 mm | - | 103 W/m² | - |
| 1777936426 | 25.56° C | 47% | 1004.9 hPa | 0 mm | - | 133 W/m² | - |
| 1777936123 | 25.56° C | 47% | 1005.1 hPa | 0 mm | - | 171 W/m² | - |
| 1777935820 | 25.56° C | 47% | 1005.1 hPa | 0 mm | - | 187 W/m² | - |
| 1777935519 | 26.11° C | 47% | 1004.9 hPa | 0 mm | - | 169 W/m² | - |
| 1777935215 | 26.11° C | 47% | 1005 hPa | 0 mm | - | 219 W/m² | - |
| 1777934913 | 26.11° C | 47% | 1004.9 hPa | 0 mm | - | 234 W/m² | - |
| 1777934609 | 26.11° C | 47% | 1004.7 hPa | 0 mm | - | 250 W/m² | - |
| 1777934306 | 26.11° C | 47% | 1004.7 hPa | 0 mm | - | 258 W/m² | - |
| 1777934002 | 26.67° C | 47% | 1004.6 hPa | 0 mm | - | 250 W/m² | - |
| 1777933698 | 26.67° C | 47% | 1004.6 hPa | 0 mm | - | 261 W/m² | - |
| 1777933395 | 26.67° C | 48% | 1004.5 hPa | 0 mm | - | 262 W/m² | - |
| 1777933094 | 26.67° C | 46% | 1004.8 hPa | 0 mm | - | 315 W/m² | - |
| 1777932790 | 26.67° C | 46% | 1004.7 hPa | 0 mm | - | 363 W/m² | - |
| 1777932487 | 26.67° C | 47% | 1004.6 hPa | 0 mm | - | 368 W/m² | - |
| 1777932184 | 27.22° C | 46% | 1004.7 hPa | 0 mm | - | 399 W/m² | - |
| 1777931881 | 27.22° C | 45% | 1004.5 hPa | 0 mm | - | 315 W/m² | - |
| 1777931577 | 27.78° C | 45% | 1004.9 hPa | 0 mm | - | 315 W/m² | - |
| 1777931273 | 27.78° C | 44% | 1004.9 hPa | 0 mm | - | 302 W/m² | - |
| 1777930970 | 27.78° C | 44% | 1004.9 hPa | 0 mm | - | 378 W/m² | - |
* Rain latest hour (hover to see other rain measurements)
** Current wind speed in m/s (hover to see current wind gust speed)